Flag for Spain Weather past 2 weeks in Sevilla, Spain

Now
75 °F

Clear.


Feels Like: 78 °F
Forecast: 65 / 97 °F
Wind: 8 mph from South

Location: Sevilla / San Pablo

Current Time: Jul 3, 2015 at 1:42:07 AM

Latest Report: Jul 3, 2015 at 1:00 AM


Visibility: 10 mi

Pressure: 30.04 "Hg

Humidity: 41%

Dew point: 50 °F

Location of SevillaLocation

Historic Weather in Sevilla — Graph

°F

Sevilla temperature yesterday

Maximum temperature yesterday: 95 °F (at 5:30 PM)
Minimum temperature yesterday: 68 °F (at 6:00 AM)
Average temperature yesterday: 81 °F

Past Weeks' High & Low Weather Summary

 TemperatureHumidityPressure
High106 °F (Jun 27, 4:30 PM)94% (Jul 1, 4:30 AM)30.12 "Hg (Jul 1, 4:30 AM)
Low61 °F (Jun 25, 7:30 AM)11% (Jun 26, 6:30 PM)29.89 "Hg (Jun 19, 7:30 PM)
Average81 °F44%30.01 "Hg
* Reported Midnight between Jun 17 and Jun 18 — Jul 3 12:30 AM, Sevilla, Weather by CustomWeather, © 2015

Note: Actual official high and low records may vary slightly from our data, if they occured in-between our weather recording intervals... More about our weather records

Advertising

Sevilla weather history for previous 24 hours

 ConditionsComfort  
Time TempWeatherWind HumidityBarometerVisibility
12:30 AM
Fri, Jul 3
77 °FPassing clouds.5 mph34%30.04 "HgN/A
12:00 AM79 °FPassing clouds.5 mph32%30.04 "HgN/A
11:30 PM
Thu, Jul 2
81 °FClear.7 mph28%30.04 "Hg10 mi
11:00 PM81 °FClear.7 mph28%30.01 "Hg10 mi
10:30 PM82 °FSunny.9 mph26%30.01 "Hg10 mi
10:00 PM84 °FSunny.9 mph27%29.98 "Hg10 mi
9:30 PM88 °FPassing clouds.12 mph24%29.98 "HgN/A
9:00 PM88 °FSunny.10 mph31%29.98 "Hg10 mi
8:30 PM90 °FSunny.13 mph26%29.98 "Hg10 mi
8:00 PM91 °FPassing clouds.12 mph24%29.98 "HgN/A
7:30 PM91 °FPassing clouds.10 mph28%29.98 "HgN/A
7:00 PM93 °FPassing clouds.10 mph30%29.98 "HgN/A
6:30 PM93 °FPassing clouds.9 mph28%29.98 "HgN/A
6:00 PM93 °FPassing clouds.8 mph24%30.01 "HgN/A
5:30 PM95 °FPassing clouds.3 mph22%30.01 "HgN/A
5:00 PM93 °FSunny.3 mph21%30.01 "Hg10 mi
4:30 PM93 °FSunny.5 mph21%30.01 "Hg10 mi
4:00 PM91 °FSunny.2 mph23%30.01 "Hg10 mi
3:30 PM91 °FSunny.5 mph26%30.04 "Hg10 mi
3:00 PM90 °FSunny.3 mph27%30.04 "Hg10 mi
2:30 PM88 °FPassing clouds.5 mph29%30.04 "HgN/A
2:00 PM88 °FSunny.3 mph31%30.07 "Hg10 mi
1:30 PM86 °FSunny.2 mph33%30.07 "Hg10 mi
1:00 PM86 °FSunny.2 mph38%30.07 "Hg10 mi
12:30 PM84 °FSunny.2 mph40%30.07 "Hg10 mi
12:00 PM82 °FSunny.3 mph45%30.07 "Hg10 mi
11:30 AM79 °FPassing clouds.5 mph54%30.07 "HgN/A
11:00 AM79 °FPassing clouds.3 mph54%30.07 "HgN/A
10:30 AM77 °FPassing clouds.3 mph57%30.07 "HgN/A
10:00 AM75 °FPassing clouds.3 mph65%30.07 "HgN/A
9:30 AM73 °FSunny.2 mph69%30.07 "Hg10 mi
9:00 AM72 °FSunny.No wind78%30.07 "Hg10 mi
8:30 AM72 °FSunny.1 mph78%30.07 "Hg10 mi
8:00 AM70 °FClear.No wind83%30.07 "Hg10 mi
7:30 AM68 °FClear.No wind83%30.07 "Hg10 mi
7:00 AM68 °FClear.No wind83%30.07 "Hg10 mi
6:30 AM68 °FClear.No wind83%30.04 "Hg10 mi
6:00 AM68 °FClear.2 mph83%30.04 "Hg10 mi
5:30 AM70 °FClear.2 mph83%30.04 "Hg10 mi
5:00 AM70 °FClear.3 mph83%30.04 "Hg10 mi
4:30 AM70 °FPassing clouds.5 mph83%30.04 "HgN/A
4:00 AM70 °FPassing clouds.5 mph83%30.04 "HgN/A
3:30 AM70 °FPassing clouds.6 mph83%30.04 "HgN/A
1:00 AM72 °FPassing clouds.13 mph73%30.04 "HgN/A
Weather by CustomWeather, © 2015

See weather overviewHow to use our weather pages